Sergeant Bluff, IA

7:08 PM CST on February 10, 2016 (GMT -0600)
Sioux Gateway

Weather History for KSUX - March, 2013

Change the Weather History Date:

Thursday, March 21, 2013

  Actual Average Record
Temperature  
Mean Temperature 25 °F 39 °F  
Max Temperature 35 °F 50 °F 85 °F (1910)
Min Temperature 14 °F 27 °F -2 °F (1974)
Degree Days  
Heating Degree Days 40 26  
Month to date heating degree days 754 645  
Since 1 July heating degree days 5903 5939  
Cooling Degree Days 0 0  
Month to date cooling degree days 0 0  
Year to date cooling degree days 0 0  
Moisture  
Dew Point 13 °F    
Average Humidity 61    
Maximum Humidity 81    
Minimum Humidity 41    
Precipitation  
Precipitation 0.00 in 0.07 in 0.38 in (1892)
Month to date precipitation 1.55 1.19  
Year to date precipitation 2.75 2.48  
Snow  
Snow 0.00 in 0.20 in 3.80 in (1892)
Month to date snowfall 10.0 4.8  
Since 1 July snowfall 30.8 31.3  
Snow Depth 0.00 in    
Sea Level Pressure  
Sea Level Pressure 30.07 in    
Wind  
Wind Speed 9 mph (East)    
Max Wind Speed 13 mph    
Max Gust Speed 16 mph    
Visibility 10 miles    
Events      
T = Trace of Precipitation, MM = Missing Value Source: NWS Daily Summary

Daily Weather History Graph

Daily Weather History Graph

Search for Another Location

Airport or City:

Trip Planner

Search our weather history database for the weather conditions in past years. The results will help you decide how hot, cold, wet, or windy it might be!

Date:

Astronomy

Mar. 21, 2013 Rise Set
Actual Time 7:26 AM CDT 7:39 PM CDT
Civil Twilight 6:58 AM CDT 8:07 PM CDT
Nautical Twilight 6:25 AM CDT 8:40 PM CDT
Astronomical Twilight 5:52 AM CDT 9:14 PM CDT
Moon 2:04 PM CDT (3/21) 3:55 AM CDT (3/21)
Length of Visible Light 13h 08m
Length of Day
12h 12m
Waxing Gibbous, 69% of the Moon is Illuminated
Mar 21
Waxing Gibbous
Mar 27
Full
Apr 2
Last Quarter
Apr 10
New
Apr 18
First Quarter

Hourly Weather History & Observations

Time (CDT) Temp. Windchill Dew Point Humidity Pressure Visibility Wind Dir Wind Speed Gust Speed Precip Events Conditions
12:52 AM 19.0 °F 11.1 °F 10.9 °F 71% 30.17 in 10.0 mi ENE 5.8 mph - N/A   Clear
1:52 AM 18.0 °F 7.7 °F 10.9 °F 74% 30.16 in 10.0 mi East 8.1 mph - N/A   Clear
2:52 AM 17.1 °F 6.6 °F 9.0 °F 71% 30.16 in 10.0 mi East 8.1 mph - N/A   Clear
3:52 AM 17.6 °F 7.3 °F 8.6 °F 68% 30.10 in 10.0 mi East 8.1 mph - N/A   Clear
4:52 AM 16.0 °F 5.3 °F 8.1 °F 71% 30.13 in 10.0 mi East 8.1 mph - N/A   Clear
5:52 AM 15.1 °F 2.5 °F 7.0 °F 70% 30.12 in 10.0 mi East 10.4 mph - N/A   Clear
6:52 AM 14.0 °F 2.9 °F 7.0 °F 74% - 10.0 mi East 8.1 mph - N/A   Clear
7:52 AM 15.1 °F 3.3 °F 7.0 °F 70% 30.12 in 10.0 mi East 9.2 mph - N/A   Clear
8:52 AM 16.0 °F 4.4 °F 7.0 °F 68% 30.12 in 10.0 mi ESE 9.2 mph - N/A   Clear
9:52 AM 19.0 °F 9.0 °F 10.0 °F 68% 30.10 in 10.0 mi ESE 8.1 mph - N/A   Clear
10:52 AM 23.0 °F 12.4 °F 10.9 °F 60% 30.09 in 10.0 mi SE 10.4 mph - N/A   Overcast
11:52 AM 26.1 °F 18.4 °F 12.0 °F 55% 30.08 in 10.0 mi SSE 6.9 mph - N/A   Overcast
12:52 PM 28.0 °F 21.7 °F 14.0 °F 56% 30.05 in 10.0 mi SE 5.8 mph - N/A   Overcast
1:52 PM 30.2 °F 23.4 °F 12.2 °F 47% 29.99 in 10.0 mi ESE 6.9 mph - N/A   Overcast
2:52 PM 30.9 °F 24.3 °F 12.0 °F 46% 30.01 in 10.0 mi ESE 6.9 mph - N/A   Overcast
3:52 PM 34.0 °F 28.0 °F 12.9 °F 42% 29.99 in 10.0 mi ESE 6.9 mph - N/A   Overcast
4:52 PM 35.1 °F 26.9 °F 15.1 °F 44% 29.98 in 10.0 mi East 11.5 mph - N/A   Overcast
5:52 PM 33.1 °F 25.5 °F 17.1 °F 52% 29.99 in 10.0 mi East 9.2 mph - N/A   Overcast
6:52 PM 32.0 °F 23.0 °F 19.0 °F 59% 30.00 in 10.0 mi East 11.5 mph - N/A   Overcast
7:52 PM 30.0 °F 21.1 °F 19.0 °F 64% 30.02 in 10.0 mi East 10.4 mph - N/A   Overcast
8:52 PM 28.0 °F 19.3 °F 19.0 °F 69% 30.03 in 10.0 mi East 9.2 mph - N/A   Clear
9:52 PM 26.1 °F 16.8 °F 19.9 °F 78% 30.06 in 10.0 mi East 9.2 mph - N/A   Clear
10:52 PM 24.1 °F 13.7 °F 18.0 °F 77% 30.07 in 10.0 mi East 10.4 mph - N/A   Clear
11:52 PM 23.0 °F 15.8 °F 17.1 °F 78% 30.07 in 10.0 mi East 5.8 mph - N/A   Clear